Current Version              Previous Version:    01  02  03  04  05  06  07  08  09  10  11  12  13  14  15  16  17  18  19  20  21  22  23  24  25  26  27  28  29  30  
   31  32  33  34  35  36  37  38  39  40  41  42  43  44  45  46  47  48  49  50  51  52  53  54  55  56  57  58  59  60  

[Printable]
171
ASUS44 KFWD 251015
RWRTX
NORTH TEXAS HOURLY WEATHER ROUNDUP
NATIONAL WEATHER SERVICE FORT WORTH TX
500 AM CDT SAT OCT 25 2014

NOTE: "FAIR" INDICATES FEW OR NO CLOUDS BELOW 12,000 FEET WITH NO
SIGNIFICANT WEATHER AND/OR OBSTRUCTIONS TO VISIBILITY.

TXZ118-119-251100-
DALLAS/FORT WORTH METROPLEX

CITY           SKY/WX    TMP DP  RH WIND       PRES   REMARKS
DFW AIRPORT    CLEAR     66  58  75 S9        30.09S
DALLAS LOVE    CLEAR     67  58  72 S7        30.10S
FTW MEACHAM    CLEAR     67  59  75 S7        30.08F
DAL-EXECUTIVE  CLEAR     65  57  75 S5        30.10S
FTW-ALLIANCE   CLEAR     64  59  83 S3        30.08F
FTW-NAS-JRB    CLEAR     70  58  65 S7        30.13S
FTW-SPINKS     CLEAR     65  58  78 S6        30.11S
ARLINGTON      CLEAR     64  57  78 S5        30.10S
GRAND PRAIRIE  CLEAR     65  59  80 S6        30.11S
ADDISON        CLEAR     66  60  81 S6        30.12S
MESQUITE       CLEAR     59  58  95 S5        30.12R
LANCASTER      CLEAR     59  55  87 CALM      30.12S
$$

TXZ091>094-102>105-117-120-121-131>134-251100-
NORTH CENTRAL TEXAS

CITY           SKY/WX    TMP DP  RH WIND       PRES   REMARKS
SHRMAN/DENISON CLEAR     66  61  84 S9        30.10S
GAINESVILLE    CLEAR     61  58  91 S5        30.11S
BOWIE          CLEAR     60  59  95 CALM      30.08S
BRIDGEPORT     CLEAR     60  60 100 CALM      30.10S
DECATUR        CLEAR     65  58  77 S6        30.09S
DENTON         CLEAR     63  59  87 SE7       30.09S
MCKINNEY       CLEAR     62  58  86 SE6       30.10S
GREENVILLE     CLEAR     61  57  88 S3        30.12R
ROCKWALL       CLEAR     62  59  88 S7        30.10S
TERRELL        CLEAR     61  58  90 CALM      30.12S
WAXAHACHIE     CLEAR     62  57  84 CALM      30.13R
CLEBURNE       CLEAR     63  61  94 S7        30.12S
GRANBURY       CLEAR     68  59  73 CALM      30.11R
$$

TXZ083>090-098>101-113>116-127>130-139>142-154-155-251100-
WESTERN NORTH TEXAS

CITY           SKY/WX    TMP DP  RH WIND       PRES   REMARKS
WICHITA FALLS  CLEAR     62  57  83 S5        30.06S
WF-KICKAPOO    CLEAR     63  57  80 W7        30.08R
VERNON         CLEAR     61  54  77 CALM      30.08R
ABILENE        CLEAR     66  55  67 SW3       30.12F
ABILENE-DYESS  CLEAR     67  56  66 CALM      30.11S
BRECKENRIDGE   CLEAR     67  57  70 S7        30.10R
GRAHAM         CLEAR     66  59  76 S5        30.08R
MINERAL WELLS  CLEAR     61  58  90 SE7       30.08S
STEPHENVILLE   CLEAR     62  57  85 S3        30.14S
COMANCHE       CLEAR     67  59  74 SW12G17   30.12S
BROWNWOOD      PTCLDY    59  57  94 CALM      30.14S
COLEMAN        CLEAR     62  57  85 CALM      30.14S
BRADY          CLEAR     61  55  82 S5        30.14S
$$

TXZ143>147-156>162-174-175-251100-
CENTRAL TEXAS

CITY           SKY/WX    TMP DP  RH WIND       PRES   REMARKS
WACO           CLEAR     63  58  83 S8        30.12S
WACO-MCGREGOR  CLEAR     63  54  72 SW5       30.13S
HILLSBORO      CLEAR     62  55  79 S6        30.12S
CORSICANA      CLEAR     61  57  87 S6        30.14R
MEXIA          CLEAR     59  57  91 S3        30.13R
HEARNE         CLEAR     58  56  93 CALM      30.15R
CAMERON        CLEAR     61  57  87 CALM      30.13S
TEMPLE         CLEAR     61  54  77 S7        30.12S
KILLEEN        CLEAR     67  57  70 SW8       30.12F
KILLEEN-SKYLRK CLEAR     63  54  72 CALM      30.11S
FORT HOOD      CLEAR     66  58  75 S3        30.13S
GATESVILLE     CLEAR     66  57  72 S6        30.14S
HAMILTON       CLEAR     67  57  72 SW8G17    30.13S
LAMPASAS       CLEAR     63  58  84 SW3       30.12S
$$

TXZ095>097-106>112-122>126-135>138-148>153-164>167-251100-
EAST TEXAS

CITY           SKY/WX    TMP DP  RH WIND       PRES   REMARKS
PARIS          CLEAR     59  52  77 S5        30.12S
SULPHUR SPRNGS CLEAR     63  58  86 SW3       30.13S
MOUNT PLEASANT CLEAR     58  57  97 CALM      30.13S
MINEOLA        CLEAR     57  57 100 CALM      30.13R
TYLER          CLEAR     62  57  83 S8        30.12S
LONGVIEW       CLEAR     59  55  87 S7        30.12S
MARSHALL       CLEAR     56  54  92 CALM      30.14S
ATHENS         CLEAR     55  54  94 CALM      30.12S
PALESTINE      CLEAR     61  57  86 SE3       30.15R
JACKSONVILLE   CLEAR     63  56  79 S5        30.15R
HENDERSON      CLEAR     55  55 100 CALM      30.14S
NACOGDOCHES    CLEAR     52  48  87 CALM      30.15R
LUFKIN         CLEAR     55  51  86 E3        30.14R
$$

SUPPLEMENTAL OBSERVATIONS (CENTRAL)

CITY           SKY/WX    TMP DP  RH WIND       PRES   REMARKS
LAKE TEXOMA      N/A     68  59  73 S3          N/A
CADDO GRASSLND   N/A     64  57  77 S8          N/A
PAT MAYSE LAKE   N/A     63  57  82 SE3         N/A
GREENVILLE       N/A     64  59  82 S5          N/A
CEDAR HILL       N/A     66  55  68 S6          N/A
ATHENS           N/A     63  55  77 S5          N/A
PALESTINE        N/A     59  55  88 CALM        N/A
LAKE LIMESTONE   N/A     59  54  82 S1          N/A
MCGREGOR         N/A     61  57  88 SW3         N/A
TEMPLE           N/A     63  55  77 S2          N/A
$$

SUPPLEMENTAL OBSERVATIONS (WEST)

CITY           SKY/WX    TMP DP  RH WIND       PRES   REMARKS
MILLERS CREEK    N/A     63  52  67 SW6         N/A
POSSUM KINGDOM   N/A     70  57  64 SW7         N/A
LBJ GRASSLAND    N/A     64  57  77 SE6         N/A
GRANBURY         N/A     66  57  72 SE1         N/A
COMANCHE         N/A     68  57  68 SW13        N/A
HAMBY            N/A     64  54  68 S6          N/A
IVIE RESERVOIR   N/A     61  55  82 VRB2        N/A
COLORADO BEND    N/A     64  55  72 SW6         N/A
$$

SUPPLEMENTAL OBSERVATIONS (EAST)

CITY           SKY/WX    TMP DP  RH WIND       PRES   REMARKS
CADDO LAKE       N/A     54  52  94 W1          N/A
LUFKIN           N/A     52  50  93 MISG        N/A
N SABINE NF      N/A     48  45  87 MISG        N/A
$$

SUPPLEMENTAL OBSERVATIONS ARE A COLLECTION OF AUTOMATED INSTRUMENTS
THAT ARE MAINTAINED BY A VARIETY OF FEDERAL AND STATE AGENCIES.
CERTAIN ELEMENTS...SUCH AS HUMIDITY VALUES AND SUSTAINED WIND
SPEEDS...MAY BE APPROXIMATED.